STARLINK-30359, 57779

Orbit data source: Space-Track

STARLINK-30359, 57779 is a payload satellite owned by SpaceX/Seattle (US) in LEO that was launched on Mon, 04 Sep 2023 UTC via an FALCON 9 launch vehicle from the Air Force Eastern Test Range (AFETR). Payload-class satellites include a variety of spacecraft equipped with specific instruments for various scientific and technological missions. These include communications satellites like Starlink; space stations such as the ISS; scientific satellites like the Hubble; Earth observation satellites from companies like Planet Labs, Umbra, and HawkEye 360; GPS; miniature CubeSats for education and research; and military/defense satellites.

Loading next visibility...
Identifier
57779, 2023-134J
Orbit
LEO
Country
Flag of USUS
Related business
Manufacturer
SpaceX/Seattle
Mission
Operational Commercial Communications
Bus & Motor
STARLINK V2M, Unknown motor
Mass
730 kg wet, ~700 kg dry
Launch date (UTC)
2023-09-04 (2 years ago)
Launch vehicle
FALCON 9
Launch site
Air Force Eastern Test Range (AFETR)
Object type
Payload
Rocket body
Debris
Shape & HBR
Box + 2 Pan, 17.7 m
Radar Cross Section
33.884 m², Large (>1 m²)

Expand to show TLE details & history
Last TLE update: 23 hours ago

TLE from 23 hours ago
0 STARLINK-30359
1 57779U 23134J   25346.57595414 -.00000351  00000-0 -10936-4 0  9992
2 57779  43.0071 298.3355 0001006 280.4346  79.6383 15.02537201126518
Epoch: 2025-12-12T13:49Z
TLE epoch observation values (Epoch: 2025-12-12T13:49:22.437Z)
Latitude
-0.00003°
Longitude
9.47638°
Altitude
558.729 km
Speed
7.584 km/s
True Right ascension
19h 53m 20s
True Declination
0° 00' 00"
Sunlit
Object was in daylight at epoch
Visualization orbit readout
Latitude
Unknown
Longitude
Unknown
Altitude
Unknown
Speed
Unknown
Apparent Right ascension
Unknown
Apparent Declination
Unknown
Sunlit
N/A
Visualization observer readout
Local Sidereal Time
11:20:51
Azimuth
Unknown
Elevation
Unknown
Doppler factor
Unknown
Orbital elements
Apogee altitude
561.697 km
Perigee altitude
560.301 km
Semi-major axis
6,939.136 km
Eccentricity
0.0001
Inclination
43.0071°
RAAN
298.3355°
Arg. of periapsis
280.4346°
True anomaly
79.64964°
Mean anomaly
79.6383°
Eccentric anomaly
79.64397°
Mean motion
3.75479 °/min
Orbital period
95.88 mins
BSTAR
-0.000010936
Loading maneuver chart data...
Computing Atmospheric mass density...
Loading historical data...
Loading historical data...
Loading historical data...
Loading historical data...
Loading historical data...
Loading historical data...
Loading historical data...

Documentation

Showing up to 5 results
|